FW1401 Weather Reports


Display with metric or nautical units.
time (UTC)temp
F
wind
direction
speed
MPH
gust
MPH
rain 1hr
in
rain 24hr
in
rain mn
in
humidity
%
barometer
mb
20260502151511 57 304 3.0 12.0 0.00 0.00 0.00 51 1016.8
20260502123031 42 249 5.0 10.0 0.00 0.00 0.00 66 1018.7
20260502121528 41 235 4.0 11.0 0.00 0.00 0.00 67 1018.8
20260502114524 40 252 7.0 12.0 0.00 0.00 0.00 68 1019.1
20260502113023 39 244 3.0 11.0 0.00 0.00 0.00 69 1019.2
20260502111520 39 308 3.0 8.0 0.00 0.00 0.00 70 1019.3
20260502110017 39 252 3.0 9.0 0.00 0.00 0.00 70 1019.4
20260502104515 39 263 3.0 7.0 0.00 0.00 0.00 69 1019.6
20260502103013 39 280 2.0 6.0 0.00 0.00 0.00 69 1019.8
20260502101514 39 286 2.0 7.0 0.00 0.00 0.00 69 1020.0
20260502091501 39 296 1.0 6.0 0.00 0.00 0.00 66 1020.8
20260502070052 40 296 0.0 2.0 0.00 0.00 0.00 56 1021.9
20260502064546 40 294 0.0 3.0 0.00 0.00 0.00 55 1022.2
20260502063042 40 291 0.0 2.0 0.00 0.00 0.00 56 1022.2
20260502061537 41 294 1.0 2.0 0.00 0.00 0.00 56 1022.2
20260502060036 41 302 0.0 1.0 0.00 0.00 0.00 57 1022.4
20260502054535 41 304 0.0 1.0 0.00 0.00 0.00 56 1022.4
20260502053032 41 304 0.0 1.0 0.00 0.00 0.00 55 1022.4
20260502051532 42 304 0.0 1.0 0.00 0.00 0.00 54 1022.5
20260502050035 41 304 0.0 1.0 0.00 0.00 0.00 54 1022.5
20260502044529 42 291 0.0 1.0 0.00 0.00 0.00 54 1022.6
20260502043029 42 298 0.0 0.0 0.00 0.00 0.00 53 1022.6
20260502041533 42 298 0.0 0.0 0.00 0.00 0.00 53 1022.7
20260502040027 43 297 0.0 0.0 0.00 0.00 0.00 52 1022.8
20260502034536 43 297 0.0 0.0 0.00 0.00 0.00 54 1022.8
20260502033027 44 286 0.0 2.0 0.00 0.00 0.00 56 1022.9
20260502031527 44 331 0.0 0.0 0.00 0.00 0.00 53 1022.8
20260502030026 44 332 0.0 0.0 0.00 0.00 0.00 47 1022.8
20260502024525 44 334 0.0 0.0 0.00 0.00 0.00 47 1022.8
20260502023025 45 357 0.0 0.0 0.00 0.00 0.00 44 1022.8
20260502021525 46 358 0.0 0.0 0.00 0.00 0.00 43 1022.8
20260502020024 48 3 0.0 0.0 0.00 0.00 0.00 41 1022.8
20260502014545 50 3 0.0 0.0 0.00 0.00 0.00 39 1022.8
20260502013023 52 335 0.0 1.0 0.00 0.00 0.00 37 1022.8
20260502011523 54 334 0.0 1.0 0.00 0.00 0.00 35 1022.9
20260502010022 54 342 0.0 2.0 0.00 0.00 0.00 34 1022.7
20260502004522 55 340 0.0 4.0 0.00 0.00 0.00 34 1022.7
20260502003022 55 344 0.0 5.0 0.00 0.00 0.00 33 1022.8
20260502001522 55 62 1.0 5.0 0.00 0.00 0.00 33 1022.8
20260502000039 56 329 0.0 5.0 0.00 0.00 0.00 31 1022.8
20260501234519 56 333 1.0 7.0 0.00 0.00 0.00 32 1022.9
20260501233019 56 306 2.0 5.0 0.00 0.00 0.00 32 1023.1
20260501231524 56 344 2.0 11.0 0.00 0.00 0.00 32 1023.2
20260501230020 55 298 2.0 5.0 0.00 0.00 0.00 32 1023.0
20260501224517 55 9 2.0 6.0 0.00 0.00 0.00 32 1023.1
20260501223016 56 343 3.0 14.0 0.00 0.00 0.00 33 1023.1
20260501221520 56 346 0.0 3.0 0.00 0.00 0.00 34 1023.2
20260501220014 55 321 0.0 10.0 0.00 0.00 0.00 33 1023.3
20260501214513 56 312 0.0 5.0 0.00 0.00 0.00 35 1023.4
20260501213009 55 328 3.0 9.0 0.00 0.00 0.00 37 1023.6
20260501211510 55 292 1.0 10.0 0.00 0.00 0.00 35 1023.6
20260501210006 54 317 2.0 9.0 0.00 0.00 0.00 35 1023.8
20260501204504 54 6 2.0 10.0 0.00 0.00 0.00 36 1024.0
20260501203003 55 338 0.0 10.0 0.00 0.00 0.00 39 1024.0
20260501201501 53 342 0.0 7.0 0.00 0.00 0.00 37 1024.3
20260501200100 53 357 2.0 7.0 0.00 0.00 0.00 39 1024.4
20260501194559 53 334 5.0 13.0 0.00 0.00 0.00 38 1024.6
20260501193101 53 331 1.0 9.0 0.00 0.00 0.00 42 1024.5
20260501191556 52 342 3.0 8.0 0.00 0.00 0.00 42 1024.7
20260501190054 51 324 2.0 7.0 0.00 0.00 0.00 42 1024.8
20260501184556 51 273 3.0 9.0 0.00 0.00 0.00 42 1024.9
20260501183055 51 323 2.0 10.0 0.00 0.00 0.00 43 1025.0
20260501181550 50 342 2.0 8.0 0.00 0.00 0.00 44 1025.1
20260501180048 49 323 1.0 5.0 0.00 0.00 0.00 46 1025.2
20260501174548 49 297 2.0 10.0 0.00 0.00 0.00 48 1025.3
20260501173044 49 348 1.0 5.0 0.00 0.00 0.00 49 1025.4
20260501171544 49 1 1.0 7.0 0.00 0.00 0.00 50 1025.6
20260501170048 48 357 1.0 6.0 0.00 0.00 0.00 49 1025.6
20260501164538 47 44 1.0 8.0 0.00 0.00 0.00 50 1025.8
20260501163039 46 306 3.0 9.0 0.00 0.00 0.00 52 1025.8
20260501161535 46 318 2.0 8.0 0.00 0.00 0.00 52 1025.8
20260501160032 45 290 1.0 6.0 0.00 0.00 0.00 53 1025.9
20260501154535 45 330 2.0 8.0 0.00 0.00 0.00 54 1026.1
20260501153028 44 323 2.0 9.0 0.00 0.00 0.00 57 1026.1